Wind_Speed
59 60 62 65 67 70 73 75 76 73 72 67 67 67 65 63 61 58 54 52 52 53 46 43 46 46 48 43 42 44 45 45 45 42 37 32 35 37 38 39 37 36 39 43
58 58 62 67 70 72 74 71 71 70 68 63 63 62 62 63 60 56 52 49 47 48 38 31 35 40 40 35 37 36 34 37 40 35 30 31 32 34 36 36 36 37 40 42
59 61 67 73 70 74 76 70 64 64 64 63 61 60 57 57 53 50 46 43 39 37 30 27 25 28 31 28 27 31 33 35 30 30 32 31 30 31 32 32 33 35 39 41
65 69 72 69 68 71 70 65 56 56 55 53 56 57 55 55 55 51 45 42 36 31 22 15 13 16 21 20 21 24 28 28 29 29 27 27 27 28 30 31 33 34 38 41
73 76 80 68 66 66 67 62 56 54 51 54 60 64 62 59 57 51 45 43 39 31 24 18 15 11 14 16 18 22 25 27 27 26 25 27 29 30 33 37 39 40 41 44
76 79 76 64 60 58 59 57 51 46 50 60 66 72 67 53 49 45 43 41 34 29 26 25 21 18 18 20 23 25 25 25 26 26 25 28 31 34 38 40 41 43 43 45
76 73 65 58 56 52 54 55 41 44 52 60 66 64 58 49 46 42 34 36 31 27 26 25 24 22 19 21 26 29 27 26 26 25 27 31 35 37 39 42 44 44 46 48
73 66 58 56 48 49 50 43 42 45 52 59 62 57 56 51 41 36 27 27 28 23 21 19 23 26 22 19 23 26 28 27 25 26 29 33 37 36 37 41 45 46 48 49
67 58 52 47 45 45 42 38 40 44 48 55 59 53 53 41 24 21 18 20 21 16 17 18 20 24 23 22 25 26 27 27 27 29 32 36 39 39 38 41 43 44 46 47
59 50 48 42 39 36 33 34 39 42 44 50 53 51 43 32 23 19 15 13 12 15 18 20 21 24 29 28 28 31 32 32 33 34 36 39 40 40 41 43 44 44 45 45
51 48 43 36 35 28 26 31 36 37 39 44 42 45 43 34 26 20 14 11 12 16 20 23 25 27 27 30 31 33 34 34 35 37 38 38 40 42 43 43 42 42 42 42
48 45 40 38 34 26 27 32 35 36 37 38 37 37 38 36 30 23 18 17 18 21 23 25 26 27 27 29 32 33 34 35 36 36 38 40 42 42 43 41 41 41 41 41
45 41 37 37 31 28 31 32 30 32 36 37 35 33 31 30 27 24 21 19 18 19 22 25 26 25 26 28 31 33 34 36 37 38 41 43 43 44 44 43 44 44 44 45
40 37 35 33 29 27 27 25 27 32 34 34 33 32 31 29 27 25 22 20 19 20 21 22 22 21 22 23 26 29 33 36 38 40 43 44 44 45 45 46 48 49 49 49
37 37 35 32 30 27 25 27 30 31 30 28 30 30 30 30 30 30 28 27 26 26 26 26 26 26 27 28 29 32 34 37 40 42 43 44 46 46 47 48 50 51 53 55
34 34 33 32 29 26 26 27 29 30 30 29 29 29 30 31 31 31 31 31 31 31 31 31 31 31 31 32 32 33 36 38 40 43 45 47 48 49 51 53 55 56 58 59
32 29 28 27 25 24 25 27 28 28 29 29 30 30 32 32 32 32 31 31 30 30 29 29 30 31 31 32 33 35 37 40 42 45 47 49 52 54 57 58 60 61 63 64
31 29 28 26 24 24 26 26 27 27 26 27 30 33 34 33 32 32 31 30 30 30 30 29 30 31 32 33 35 38 40 43 46 49 52 54 57 59 61 63 65 67 69 71
31 29 28 27 25 25 26 27 26 25 27 31 35 37 36 34 33 33 32 31 31 31 32 32 33 35 38 39 41 43 46 48 51 54 57 60 63 65 68 70 72 74 76 78
27 26 27 27 27 27 27 26 26 28 31 35 38 39 37 36 34 34 33 33 34 34 35 37 38 40 43 45 47 50 52 55 58 61 64 67 69 72 74 76 77 78 78 78
25 24 26 28 27 26 25 26 28 32 35 38 40 40 40 38 36 35 36 37 38 39 41 43 44 46 48 51 55 57 60 63 66 68 71 73 74 74 75 75 75 74 73 72
25 24 25 27 27 26 26 28 32 35 38 40 41 42 41 39 37 37 38 40 42 45 47 50 53 56 58 61 63 65 67 69 71 72 73 72 71 70 70 68 67 65 64 62
23 24 26 26 26 26 27 31 34 36 39 41 42 42 40 39 39 40 43 45 49 52 55 58 61 63 64 65 67 68 70 70 70 69 68 66 64 63 61 58 56 53 50 47
22 24 25 25 26 28 30 33 36 38 40 41 41 41 40 40 42 44 48 52 56 60 62 64 65 66 67 68 68 67 66 64 62 59 56 53 50 47 44 41 39 36 34 32
21 23 24 25 27 30 33 35 37 39 40 41 41 41 41 43 47 51 55 59 63 65 66 66 66 66 65 63 61 58 54 51 47 43 39 36 34 32 31 29 27 27 27 26
21 23 24 26 29 31 34 36 37 39 41 41 41 42 45 49 53 58 62 64 65 65 65 64 61 58 54 51 47 42 39 36 34 32 30 28 28 28 27 26 25 24 23 23
21 24 25 28 30 33 35 36 37 40 41 42 42 45 49 54 59 62 64 64 64 62 58 53 47 43 40 36 34 33 32 31 31 30 30 30 31 31 30 29 28 27 26 25
Wind_Direction
311 311 311 311 310 309 307 307 307 307 307 310 308 309 310 310 309 307 302 296 291 288 283 264 261 263 265 266 269 273 272 269 268 274 280 278 273 265 260 260 259 258 262 263
308 309 311 311 310 311 310 311 309 308 310 311 311 310 311 312 313 310 305 301 297 293 290 273 265 263 268 268 275 267 257 256 259 271 280 279 275 266 262 263 263 263 264 264
308 311 313 313 316 315 314 314 314 313 312 314 313 314 317 315 313 309 306 307 305 300 305 292 277 268 274 275 275 258 249 248 260 276 277 276 270 263 264 270 276 274 269 267
314 316 316 318 316 313 313 315 316 314 316 317 317 317 320 314 306 303 300 298 301 298 293 285 286 274 269 272 264 250 249 251 261 268 278 279 274 270 270 273 277 279 276 275
318 317 316 319 315 314 314 317 318 317 317 318 317 315 317 311 302 295 292 291 292 291 280 269 254 270 262 261 265 266 262 262 262 264 276 280 277 273 272 274 277 280 281 280
317 315 320 321 315 315 313 319 321 317 318 322 322 318 317 311 303 299 289 287 290 286 279 271 260 255 253 254 253 256 263 265 267 269 276 280 281 282 280 279 278 279 281 282
317 318 323 319 318 319 319 322 322 321 325 326 326 324 321 316 306 308 294 281 282 285 282 270 263 252 251 262 260 259 265 270 274 276 278 281 284 285 284 281 277 276 278 282
318 321 322 318 322 320 319 322 326 329 329 331 336 333 326 319 306 298 295 279 278 284 283 269 259 251 244 253 264 263 263 269 275 278 284 288 287 287 289 289 281 278 282 284
318 320 316 319 320 319 319 325 330 331 331 334 341 340 337 335 322 309 302 282 278 283 287 276 261 253 252 254 265 269 270 274 276 278 283 286 287 287 288 288 286 284 286 286
317 318 317 320 317 313 319 330 330 331 332 335 346 351 349 351 354 352 338 319 288 270 276 276 268 261 262 263 264 268 272 275 276 276 279 284 288 290 291 289 287 287 287 285
316 314 314 316 319 314 324 328 327 332 334 336 347 358 1 357 352 345 332 314 291 281 279 280 282 275 262 264 265 268 268 269 273 276 279 282 286 292 294 291 289 289 288 285
316 316 317 319 323 324 324 323 325 332 337 338 340 350 359 6 8 4 351 330 311 301 297 295 294 284 273 273 268 267 268 270 276 282 286 288 289 292 291 288 289 288 287 285
318 321 320 321 326 324 321 317 320 328 335 340 341 345 349 355 360 2 360 351 337 323 314 309 304 295 285 275 272 274 272 274 280 284 286 288 290 290 288 288 288 286 284 282
324 323 319 320 319 316 316 319 323 327 331 335 340 342 343 345 346 345 341 335 327 319 313 309 306 298 290 284 281 279 278 280 284 287 289 290 290 288 288 288 288 288 286 284
325 322 320 321 320 317 319 322 323 324 325 330 334 337 338 338 337 335 331 326 320 315 311 308 304 300 297 293 290 288 288 288 288 289 289 289 289 289 288 288 288 287 287 287
321 321 321 319 318 317 319 321 319 319 320 324 328 331 334 334 331 328 324 320 315 311 309 307 305 302 299 298 296 294 291 290 290 290 290 290 290 290 290 289 289 288 288 287
322 323 320 318 318 317 316 316 317 319 321 325 329 333 334 335 333 330 326 321 318 314 311 309 307 306 304 302 300 297 295 293 292 291 291 291 291 291 291 290 290 290 289 288
325 326 325 326 324 319 317 319 322 323 326 330 334 336 334 332 332 332 328 323 320 317 315 313 311 308 306 303 300 298 297 296 295 295 295 294 293 293 292 292 291 290 290 289
320 322 324 327 327 325 324 323 324 326 329 331 333 335 335 333 333 332 329 326 323 320 317 315 313 312 309 307 305 303 301 300 298 297 296 295 295 294 294 293 292 292 291 290
315 321 327 329 325 324 322 322 324 327 329 331 334 336 336 334 332 330 328 326 324 322 319 317 315 314 311 310 308 306 304 302 301 299 298 297 296 296 295 294 293 292 291 291
315 320 327 331 327 323 322 324 326 329 331 332 334 336 335 333 330 328 327 326 325 323 320 318 317 315 312 311 309 307 305 304 302 301 300 298 298 297 296 295 295 294 294 294
314 316 324 328 329 325 324 325 327 330 331 332 333 333 331 330 330 329 328 326 324 323 321 320 318 317 314 312 309 307 306 304 303 302 301 301 301 300 300 299 298 297 296 295
311 314 320 326 327 325 326 328 329 330 331 332 331 331 331 331 331 330 328 326 325 324 322 320 318 315 313 311 310 309 307 307 306 306 306 306 306 305 305 305 304 304 303 302
309 314 319 321 323 326 328 330 331 331 331 331 331 332 332 332 330 328 327 326 325 324 322 319 317 315 314 314 313 312 312 312 312 312 313 313 314 315 316 317 317 319 319 319
311 316 317 318 322 327 329 330 331 332 332 332 332 332 331 330 329 328 328 327 325 323 321 320 319 319 319 318 318 319 320 321 323 325 327 329 331 335 338 341 343 343 342 341
313 315 316 321 326 328 328 330 331 333 333 333 332 330 329 329 329 329 328 327 325 324 324 325 325 325 326 328 331 334 338 342 345 348 350 353 357 359 359 360 360 357 355 353
312 315 320 324 325 326 328 329 331 333 334 332 331 330 330 331 331 330 328 328 328 329 331 333 336 340 345 352 359 4 9 13 16 18 19 21 21 20 18 16 13 11 9 8
Height
5691 5682 5672 5663 5656 5650 5638 5625 5611 5599 5586 5579 5565 5556 5549 5544 5539 5534 5528 5522 5515 5508 5504 5505 5506 5509 5510 5512 5514 5514 5513 5515 5515 5515 5516 5516 5516 5516 5517 5518 5519 5520 5522 5522
5683 5674 5663 5652 5640 5633 5620 5608 5597 5583 5575 5563 5553 5545 5539 5530 5523 5517 5512 5507 5501 5495 5491 5491 5492 5495 5497 5498 5499 5500 5501 5503 5503 5504 5505 5505 5505 5506 5507 5507 5508 5509 5510 5511
5669 5661 5652 5636 5623 5611 5603 5592 5579 5567 5560 5549 5539 5532 5528 5518 5510 5504 5500 5495 5490 5485 5483 5482 5482 5485 5486 5485 5486 5488 5490 5493 5494 5494 5495 5495 5495 5496 5496 5497 5497 5498 5498 5499
5653 5647 5639 5627 5608 5594 5587 5584 5568 5558 5550 5539 5528 5519 5517 5507 5495 5489 5487 5485 5481 5477 5475 5474 5474 5473 5474 5475 5476 5478 5481 5482 5484 5486 5485 5485 5485 5486 5486 5487 5487 5487 5487 5487
5635 5626 5620 5614 5595 5582 5570 5574 5561 5547 5538 5530 5519 5506 5505 5495 5481 5475 5472 5471 5470 5468 5467 5465 5466 5466 5466 5467 5468 5470 5472 5474 5475 5476 5476 5477 5477 5477 5477 5477 5476 5475 5475 5474
5616 5603 5598 5596 5579 5568 5560 5558 5551 5539 5529 5518 5504 5488 5481 5474 5464 5459 5458 5458 5459 5459 5457 5456 5457 5459 5458 5458 5460 5462 5464 5466 5466 5467 5467 5466 5465 5465 5465 5464 5463 5462 5462 5461
5601 5589 5583 5573 5563 5555 5548 5545 5540 5530 5520 5508 5494 5477 5462 5454 5450 5446 5444 5445 5447 5449 5449 5448 5449 5450 5451 5451 5453 5455 5456 5457 5457 5457 5457 5456 5455 5454 5452 5450 5449 5448 5448 5447
5591 5581 5575 5561 5556 5546 5540 5534 5526 5520 5511 5497 5483 5466 5452 5439 5432 5432 5432 5434 5437 5440 5441 5441 5442 5442 5443 5445 5446 5447 5448 5449 5448 5447 5447 5446 5445 5443 5440 5438 5436 5435 5433 5432
5580 5574 5563 5557 5546 5539 5532 5525 5519 5512 5502 5491 5477 5461 5446 5429 5421 5422 5425 5427 5431 5434 5435 5436 5436 5436 5437 5438 5439 5440 5439 5439 5439 5438 5437 5437 5434 5431 5428 5427 5424 5422 5419 5416
5571 5563 5555 5550 5542 5535 5527 5519 5512 5505 5496 5486 5474 5459 5445 5433 5426 5423 5423 5424 5427 5429 5431 5430 5430 5430 5430 5431 5431 5432 5431 5431 5430 5429 5428 5426 5423 5420 5416 5414 5411 5408 5405 5402
5561 5553 5548 5542 5535 5527 5521 5514 5508 5501 5493 5483 5474 5461 5448 5437 5430 5426 5425 5425 5425 5426 5426 5426 5424 5424 5423 5423 5422 5422 5422 5421 5420 5420 5417 5414 5412 5407 5403 5400 5397 5394 5391 5388
5550 5542 5536 5531 5524 5517 5513 5508 5503 5497 5490 5481 5472 5463 5452 5443 5435 5429 5426 5424 5424 5423 5422 5420 5417 5415 5414 5414 5413 5413 5412 5412 5410 5408 5405 5402 5399 5394 5391 5388 5384 5381 5378 5375
5539 5532 5527 5522 5516 5511 5507 5503 5498 5492 5485 5477 5469 5461 5453 5446 5440 5433 5428 5424 5421 5419 5416 5414 5410 5408 5406 5405 5404 5403 5402 5401 5399 5396 5392 5389 5384 5380 5377 5374 5370 5367 5363 5360
5531 5524 5519 5516 5510 5507 5503 5498 5493 5486 5480 5473 5466 5459 5452 5446 5440 5434 5429 5424 5420 5416 5412 5409 5405 5402 5400 5397 5396 5394 5392 5390 5387 5383 5379 5375 5371 5367 5363 5359 5355 5350 5346 5343
5526 5518 5512 5507 5504 5500 5496 5491 5487 5481 5475 5469 5462 5456 5449 5443 5437 5432 5426 5421 5416 5411 5407 5403 5399 5395 5392 5389 5386 5384 5381 5377 5373 5369 5365 5362 5357 5352 5348 5344 5339 5334 5330 5325
5521 5515 5508 5503 5499 5495 5491 5487 5482 5477 5471 5465 5458 5452 5446 5439 5433 5426 5420 5415 5410 5404 5399 5395 5391 5387 5383 5380 5376 5373 5369 5365 5361 5357 5352 5347 5342 5337 5331 5326 5321 5316 5312 5307
5514 5510 5505 5500 5495 5490 5486 5482 5477 5471 5465 5459 5453 5447 5440 5433 5426 5420 5414 5408 5402 5397 5392 5388 5383 5378 5374 5370 5366 5362 5357 5353 5348 5343 5337 5331 5325 5319 5313 5307 5302 5296 5290 5284
5508 5504 5499 5494 5490 5485 5481 5476 5471 5466 5460 5454 5449 5442 5434 5427 5421 5414 5408 5402 5396 5390 5385 5380 5375 5370 5366 5361 5356 5351 5345 5340 5333 5327 5320 5313 5306 5299 5293 5286 5279 5273 5266 5259
5503 5499 5494 5490 5485 5481 5477 5472 5467 5461 5455 5450 5443 5436 5428 5421 5414 5408 5401 5395 5389 5384 5378 5373 5368 5362 5356 5351 5345 5338 5331 5324 5317 5310 5302 5294 5286 5278 5269 5261 5253 5245 5237 5230
5498 5494 5490 5485 5480 5476 5472 5467 5462 5456 5450 5444 5437 5429 5421 5414 5408 5401 5395 5389 5383 5377 5371 5365 5359 5353 5344 5337 5330 5322 5315 5307 5299 5290 5280 5271 5261 5252 5242 5233 5224 5216 5208 5200
5493 5489 5485 5480 5476 5471 5467 5462 5457 5451 5444 5438 5430 5422 5415 5408 5401 5395 5388 5382 5376 5369 5362 5355 5348 5341 5333 5324 5315 5306 5296 5286 5276 5266 5255 5245 5235 5224 5214 5204 5195 5186 5178 5171
5488 5485 5481 5476 5471 5467 5462 5457 5451 5445 5438 5431 5424 5417 5409 5402 5395 5388 5382 5375 5367 5360 5351 5343 5334 5325 5315 5305 5295 5285 5274 5262 5251 5239 5228 5217 5207 5196 5186 5177 5168 5160 5152 5145
5484 5481 5477 5472 5467 5463 5458 5452 5446 5439 5432 5425 5418 5411 5403 5396 5389 5381 5374 5366 5357 5349 5339 5329 5319 5308 5297 5285 5273 5261 5249 5237 5225 5213 5203 5192 5181 5171 5162 5153 5145 5137 5130 5124
5480 5476 5472 5468 5464 5459 5453 5447 5440 5433 5426 5419 5412 5404 5397 5389 5382 5374 5366 5356 5346 5336 5325 5314 5302 5289 5276 5264 5251 5238 5226 5214 5203 5192 5181 5171 5161 5153 5145 5137 5130 5123 5117 5111
5475 5472 5468 5463 5459 5453 5447 5441 5434 5427 5420 5413 5406 5398 5391 5383 5375 5365 5355 5344 5333 5321 5309 5296 5283 5270 5256 5243 5231 5219 5207 5196 5186 5177 5168 5160 5152 5144 5136 5129 5123 5117 5111 5105
5471 5467 5463 5459 5454 5448 5443 5436 5429 5422 5415 5408 5400 5392 5384 5376 5366 5355 5344 5332 5319 5306 5293 5279 5266 5253 5240 5229 5217 5207 5197 5187 5179 5171 5163 5156 5148 5141 5134 5128 5122 5116 5111 5105
5467 5463 5459 5454 5449 5444 5438 5431 5424 5417 5410 5402 5395 5387 5377 5367 5356 5344 5332 5319 5305 5292 5279 5266 5255 5243 5233 5222 5213 5204 5196 5188 5180 5172 5165 5157 5150 5143 5136 5130 5123 5117 5111 5105